EW6005 Weather Reports


Display with metric or nautical units.
time (UTC)temp
F
wind
direction
speed
MPH
gust
MPH
rain 1hr
in
rain 24hr
in
rain mn
in
humidity
%
barometer
mb
20260831015402 90 0 1.0 3.0 0.00 0.00 0.00 58 999.2
20260831014903 91 0 1.0 3.0 0.00 0.00 0.00 57 999.1
20260831014403 91 0 1.0 5.0 0.00 0.00 0.00 57 999.1
20260831013903 91 0 2.0 5.0 0.00 0.00 0.00 57 999.0
20260831013403 91 0 1.0 5.0 0.00 0.00 0.00 56 999.1
20260831012903 91 0 1.0 3.0 0.00 0.00 0.00 56 999.0
20260831012401 91 0 1.0 3.0 0.00 0.00 0.00 56 999.0
20260831011902 92 0 1.0 3.0 0.00 0.00 0.00 56 999.0
20260831011403 92 0 1.0 2.0 0.00 0.00 0.00 56 998.9
20260831010859 92 0 1.0 4.0 0.00 0.00 0.00 55 998.8
20260831010358 92 0 2.0 8.0 0.00 0.00 0.00 56 998.8
20260831005855 92 0 2.0 8.0 0.00 0.00 0.00 56 998.8
20260831005355 92 0 1.0 4.0 0.00 0.00 0.00 56 998.7
20260831004853 93 0 1.0 3.0 0.00 0.00 0.00 56 998.7
20260831004353 93 0 1.0 3.0 0.00 0.00 0.00 56 998.6
20260831003853 93 0 1.0 4.0 0.00 0.00 0.00 56 998.6
20260831003355 94 0 1.0 4.0 0.00 0.00 0.00 56 998.6
20260831002854 94 0 1.0 3.0 0.00 0.00 0.00 55 998.7
20260831002353 94 0 0.0 3.0 0.00 0.00 0.00 55 998.6
20260831001853 94 219 1.0 5.0 0.00 0.00 0.00 55 998.6
20260831001353 95 151 2.0 5.0 0.00 0.00 0.00 55 998.6
20260831000853 95 231 2.0 7.0 0.00 0.00 0.00 54 998.6
20260831000355 95 165 1.0 7.0 0.00 0.00 0.00 54 998.5
20260830235854 96 227 1.0 4.0 0.00 0.00 0.00 54 998.5
20260830235354 96 172 2.0 5.0 0.00 0.00 0.00 53 998.4
20260830234853 96 167 2.0 5.0 0.00 0.00 0.00 52 998.5
20260830234351 96 0 1.0 5.0 0.00 0.00 0.00 50 998.4
20260830233849 96 196 1.0 4.0 0.00 0.00 0.00 50 998.5
20260830233349 96 123 1.0 4.0 0.00 0.00 0.00 50 998.4
20260830232845 96 80 1.0 2.0 0.00 0.00 0.00 50 998.4
20260830232346 96 0 1.0 5.0 0.00 0.00 0.00 51 998.5
20260830231845 96 0 1.0 5.0 0.00 0.00 0.00 50 998.4
20260830231606 96 173 1.0 4.0 0.00 0.00 0.00 50 998.4
20260830230845 97 202 1.0 3.0 0.00 0.00 0.00 50 998.5
20260830230345 97 73 1.0 5.0 0.00 0.00 0.00 50 998.5
20260830225845 97 0 2.0 6.0 0.00 0.00 0.00 50 998.5
20260830225346 97 0 2.0 6.0 0.00 0.00 0.00 50 998.6
20260830224846 97 0 2.0 6.0 0.00 0.00 0.00 50 998.5
20260830224345 97 130 2.0 6.0 0.00 0.00 0.00 50 998.7
20260830223845 97 80 2.0 6.0 0.00 0.00 0.00 51 998.6
20260830223825 97 184 2.0 6.0 0.00 0.00 0.00 50 998.7
20260830222845 97 0 1.0 5.0 0.00 0.00 0.00 50 998.6
20260830222345 97 132 1.0 4.0 0.00 0.00 0.00 52 998.6
20260830221845 97 0 1.0 6.0 0.00 0.00 0.00 52 998.6
20260830221345 96 190 1.0 6.0 0.00 0.00 0.00 51 998.7
20260830221103 97 215 2.0 6.0 0.00 0.00 0.00 52 998.8
20260830220342 96 0 2.0 4.0 0.00 0.00 0.00 51 998.7
20260830215836 96 182 2.0 5.0 0.00 0.00 0.00 52 998.7
20260830215609 96 148 2.0 6.0 0.00 0.00 0.00 52 998.8
20260830214837 96 0 3.0 8.0 0.00 0.00 0.00 52 998.9
20260830214337 96 177 2.0 8.0 0.00 0.00 0.00 53 998.9
20260830214053 96 223 1.0 4.0 0.00 0.00 0.00 53 998.9
20260830213559 96 170 1.0 6.0 0.00 0.00 0.00 53 999.0
20260830212837 96 0 3.0 7.0 0.00 0.00 0.00 53 999.1
20260830212334 96 210 2.0 8.0 0.00 0.00 0.00 52 999.2
20260830211834 96 0 2.0 9.0 0.00 0.00 0.00 52 999.3
20260830211555 96 130 3.0 9.0 0.00 0.00 0.00 53 999.3
20260830210833 96 113 2.0 8.0 0.00 0.00 0.00 54 999.3
20260830210333 96 111 3.0 6.0 0.00 0.00 0.00 53 999.4
20260830205832 96 175 3.0 6.0 0.00 0.00 0.00 53 999.4
20260830205333 96 188 2.0 6.0 0.00 0.00 0.00 53 999.5
20260830204833 96 0 2.0 7.0 0.00 0.00 0.00 53 999.6
20260830204334 96 105 2.0 8.0 0.00 0.00 0.00 53 999.7
20260830203834 96 0 1.0 8.0 0.00 0.00 0.00 53 999.7
20260830203335 96 157 1.0 7.0 0.00 0.00 0.00 53 999.7
20260830202834 96 0 2.0 7.0 0.00 0.00 0.00 52 999.8
20260830202556 97 131 2.0 9.0 0.00 0.00 0.00 51 1000.0
20260830202056 97 186 2.0 9.0 0.00 0.00 0.00 53 1000.0
20260830201552 96 0 1.0 4.0 0.00 0.00 0.00 55 999.9
20260830200832 96 0 1.0 5.0 0.00 0.00 0.00 55 1000.0
20260830200333 96 0 2.0 5.0 0.00 0.00 0.00 55 1000.1
20260830200308 96 0 2.0 8.0 0.00 0.00 0.00 54 1000.3
20260830195335 97 163 3.0 10.0 0.00 0.00 0.00 54 1000.4
20260830194829 97 0 3.0 10.0 0.00 0.00 0.00 53 1000.6
20260830194328 97 122 2.0 8.0 0.00 0.00 0.00 53 1000.6
20260830194053 97 0 1.0 6.0 0.00 0.00 0.00 54 1000.7
20260830193330 97 199 1.0 5.0 0.00 0.00 0.00 54 1000.7
20260830193050 97 119 2.0 7.0 0.00 0.00 0.00 54 1000.9
20260830192330 97 217 2.0 7.0 0.00 0.00 0.00 53 1001.0
20260830191829 97 158 2.0 7.0 0.00 0.00 0.00 54 1001.0
20260830191328 97 0 2.0 4.0 0.00 0.00 0.00 54 1001.0
20260830190829 97 0 2.0 4.0 0.00 0.00 0.00 54 1001.2
20260830190325 96 0 2.0 6.0 0.00 0.00 0.00 54 1001.2
20260830185824 96 82 2.0 10.0 0.00 0.00 0.00 57 1001.2
20260830185548 96 0 2.0 10.0 0.00 0.00 0.00 56 1001.3
20260830184825 96 0 2.0 7.0 0.00 0.00 0.00 59 1001.3
20260830184325 96 0 3.0 7.0 0.00 0.00 0.00 57 1001.4
20260830183825 96 190 2.0 8.0 0.00 0.00 0.00 58 1001.5
20260830183325 96 0 3.0 9.0 0.00 0.00 0.00 56 1001.6
20260830183044 96 0 1.0 9.0 0.00 0.00 0.00 59 1001.7
20260830182321 96 0 1.0 4.0 0.00 0.00 0.00 60 1001.8
20260830182037 96 0 1.0 3.0 0.00 0.00 0.00 60 1001.9
20260830181541 96 0 1.0 3.0 0.00 0.00 0.00 59 1001.9
20260830180821 96 0 1.0 3.0 0.00 0.00 0.00 61 1002.0
20260830180320 96 119 1.0 4.0 0.00 0.00 0.00 63 1002.1
20260830175819 96 0 2.0 7.0 0.00 0.00 0.00 63 1002.2
20260830175318 95 0 2.0 7.0 0.00 0.00 0.00 63 1002.3
20260830174817 95 75 2.0 6.0 0.00 0.00 0.00 64 1002.3
20260830174317 94 138 2.0 8.0 0.00 0.00 0.00 65 1002.4
20260830173816 94 170 2.0 8.0 0.00 0.00 0.00 66 1002.5
20260830173317 94 0 2.0 10.0 0.00 0.00 0.00 65 1002.6
20260830173034 94 300 2.0 10.0 0.00 0.00 0.00 67 1002.6
20260830172317 93 0 1.0 8.0 0.00 0.00 0.00 67 1002.8
20260830171814 93 208 1.0 4.0 0.00 0.00 0.00 67 1002.8
20260830171310 92 138 1.0 6.0 0.00 0.00 0.00 70 1002.7
20260830170808 92 0 3.0 8.0 0.00 0.00 0.00 70 1002.7
20260830170524 91 140 3.0 8.0 0.00 0.00 0.00 68 1002.7
20260830165806 91 0 2.0 5.0 0.00 0.00 0.00 70 1002.9
20260830165306 90 181 1.0 5.0 0.00 0.00 0.00 72 1002.9
20260830164804 90 0 1.0 5.0 0.00 0.00 0.00 74 1002.9
20260830164302 89 0 1.0 4.0 0.00 0.00 0.00 75 1003.0
20260830163802 89 0 2.0 4.0 0.00 0.00 0.00 73 1003.0
20260830163256 89 0 2.0 4.0 0.00 0.00 0.00 74 1003.0
20260830162759 89 139 2.0 6.0 0.00 0.00 0.00 76 1003.0
20260830162254 89 0 2.0 8.0 0.00 0.00 0.00 75 1003.0
20260830161753 88 0 2.0 8.0 0.00 0.00 0.00 78 1003.0
20260830161250 87 0 2.0 8.0 0.00 0.00 0.00 79 1003.1
20260830160749 87 0 1.0 6.0 0.00 0.00 0.00 80 1003.1
20260830160250 86 0 0.0 2.0 0.00 0.00 0.00 81 1003.1
20260830155748 86 0 0.0 2.0 0.00 0.00 0.00 81 1003.1
20260830155249 86 0 1.0 2.0 0.00 0.00 0.00 83 1003.2
20260830154744 86 0 1.0 4.0 0.00 0.00 0.00 83 1003.1
20260830154457 85 0 1.0 4.0 0.00 0.00 0.00 83 1003.1
20260830153738 85 0 1.0 4.0 0.00 0.00 0.00 84 1003.1
20260830153240 85 0 1.0 4.0 0.00 0.00 0.00 85 1003.1
20260830152955 85 0 1.0 4.0 0.00 0.00 0.00 85 1003.0
20260830152239 85 190 1.0 5.0 0.00 0.00 0.00 86 1003.0
20260830151739 84 205 1.0 5.0 0.00 0.00 0.00 87 1003.0
20260830151239 84 12 0.0 2.0 0.00 0.00 0.00 87 1002.9
20260830150958 84 175 0.0 2.0 0.00 0.00 0.00 89 1003.0
20260830150238 84 195 0.0 2.0 0.00 0.00 0.00 89 1003.0
20260830145736 83 344 0.0 2.0 0.00 0.00 0.00 90 1003.0
20260830145234 83 38 0.0 2.0 0.00 0.00 0.00 90 1003.0
20260830144735 83 290 0.0 2.0 0.00 0.00 0.00 91 1003.0
20260830144234 83 284 1.0 5.0 0.00 0.00 0.00 91 1002.9
20260830143735 83 239 2.0 6.0 0.00 0.00 0.00 91 1003.0
20260830143458 82 220 1.0 6.0 0.00 0.00 0.00 92 1003.0
20260830142735 82 198 1.0 5.0 0.00 0.00 0.00 93 1003.0
20260830142235 81 196 1.0 5.0 0.00 0.00 0.00 94 1003.0
20260830141956 81 0 1.0 4.0 0.00 0.00 0.00 95 1002.9
20260830141232 81 0 1.0 5.0 0.00 0.00 0.00 95 1002.9
20260830140730 80 0 1.0 5.0 0.00 0.00 0.00 95 1003.0
20260830140230 80 0 1.0 6.0 0.00 0.00 0.00 95 1002.9
20260830135730 80 0 1.0 6.0 0.00 0.00 0.00 96 1002.9
20260830135230 79 0 1.0 3.0 0.00 0.00 0.00 96 1003.0
20260830134730 79 0 0.0 3.0 0.00 0.00 0.00 96 1002.9
20260830134452 79 0 1.0 2.0 0.00 0.00 0.00 96 1002.9
20260830133730 78 0 1.0 4.0 0.00 0.00 0.00 96 1002.9
20260830133230 78 0 0.0 4.0 0.00 0.00 0.00 96 1002.9
20260830132950 77 0 0.0 0.0 0.00 0.00 0.00 96 1002.8
20260830132448 77 0 0.0 0.0 0.00 0.00 0.00 95 1002.7
20260830131727 77 0 0.0 0.0 0.00 0.00 0.00 95 1002.6
20260830131226 77 0 0.0 0.0 0.00 0.00 0.00 95 1002.6
20260830130727 77 0 0.0 0.0 0.00 0.00 0.00 95 1002.6
20260830130448 77 0 0.0 0.0 0.00 0.00 0.00 95 1002.6
20260830125728 76 0 0.0 0.0 0.00 0.00 0.00 95 1002.6
20260830125228 76 0 0.0 0.0 0.00 0.00 0.00 95 1002.5
20260830124727 76 0 0.0 0.0 0.00 0.00 0.00 94 1002.5
20260830124225 76 0 0.0 0.0 0.00 0.00 0.00 94 1002.4
20260830123723 76 0 0.0 0.0 0.00 0.00 0.00 94 1002.3
20260830123223 76 0 0.0 0.0 0.00 0.00 0.00 94 1002.3
20260830122941 76 0 0.0 0.0 0.00 0.00 0.00 94 1002.3
20260830122222 76 0 0.0 0.0 0.00 0.00 0.00 94 1002.3
20260830121722 76 0 0.0 0.0 0.00 0.00 0.00 94 1002.3
20260830121222 76 0 0.0 0.0 0.00 0.00 0.00 93 1002.3
20260830120723 76 0 0.0 0.0 0.00 0.00 0.00 93 1002.2
20260830120222 76 0 0.0 0.0 0.00 0.00 0.00 93 1002.1
20260830115719 76 0 0.0 0.0 0.00 0.00 0.00 93 1002.2
20260830115218 76 0 0.0 0.0 0.00 0.00 0.00 93 1002.1
20260830114719 76 0 0.0 0.0 0.00 0.00 0.00 93 1002.1
20260830114218 76 0 0.0 0.0 0.00 0.00 0.00 93 1002.1
20260830113718 76 0 0.0 0.0 0.00 0.00 0.00 93 1002.1
20260830113220 76 0 0.0 0.0 0.00 0.00 0.00 93 1002.1
20260830112718 76 0 0.0 0.0 0.00 0.00 0.00 93 1002.0
20260830112218 76 0 0.0 0.0 0.00 0.00 0.00 93 1002.0
20260830111718 77 0 0.0 0.0 0.00 0.00 0.00 93 1002.0
20260830111215 77 0 0.0 0.0 0.00 0.00 0.00 93 1001.9
20260830110716 77 0 0.0 0.0 0.00 0.00 0.00 93 1001.8
20260830110215 77 0 0.0 0.0 0.00 0.00 0.00 93 1001.8
20260830105716 77 0 0.0 0.0 0.00 0.00 0.00 92 1001.8
20260830105216 77 0 0.0 0.0 0.00 0.01 0.00 92 1001.8
20260830104716 77 0 0.0 0.0 0.00 0.01 0.00 93 1001.7
20260830104653 77 0 0.0 0.0 0.00 0.01 0.00 93 1001.6
20260830103712 77 0 0.0 0.0 0.00 0.01 0.00 92 1001.6
20260830103212 77 0 0.0 0.0 0.00 0.01 0.00 92 1001.5
20260830102713 77 0 0.0 0.0 0.00 0.01 0.00 92 1001.5
20260830102211 77 0 0.0 0.0 0.00 0.01 0.00 92 1001.5
20260830101711 77 0 0.0 0.0 0.00 0.01 0.00 92 1001.6
20260830101213 77 0 0.0 0.0 0.00 0.01 0.00 92 1001.6
20260830100711 77 0 0.0 0.0 0.00 0.01 0.00 92 1001.5
20260830100211 78 0 0.0 0.0 0.00 0.01 0.00 92 1001.5
20260830095712 78 0 0.0 0.0 0.00 0.01 0.00 92 1001.4
20260830095212 78 0 0.0 0.0 0.00 0.01 0.00 92 1001.4
20260830094712 78 0 0.0 0.0 0.00 0.01 0.00 92 1001.4
20260830094212 78 0 0.0 0.0 0.00 0.01 0.00 91 1001.4
20260830093711 78 0 0.0 0.0 0.00 0.01 0.00 91 1001.4
20260830093211 78 0 0.0 0.0 0.00 0.01 0.00 91 1001.4
20260830092711 78 0 0.0 0.0 0.00 0.01 0.00 91 1001.4
20260830092212 78 0 0.0 0.0 0.00 0.01 0.00 91 1001.4
20260830091711 78 0 0.0 0.0 0.00 0.01 0.00 91 1001.4
20260830091210 78 0 0.0 1.0 0.00 0.01 0.00 90 1001.3
20260830090707 78 0 0.0 1.0 0.00 0.01 0.00 90 1001.3
20260830090207 78 0 0.0 0.0 0.00 0.01 0.00 90 1001.3
20260830085928 78 0 0.0 0.0 0.00 0.01 0.00 90 1001.3
20260830085205 78 0 0.0 0.0 0.00 0.01 0.00 89 1001.3
20260830084703 79 0 0.0 0.0 0.00 0.01 0.00 89 1001.3
20260830084203 79 0 0.0 0.0 0.00 0.01 0.00 89 1001.3
20260830083701 79 0 0.0 0.0 0.00 0.01 0.00 89 1001.3
20260830083200 79 0 0.0 0.0 0.00 0.01 0.00 89 1001.3
20260830082921 79 0 0.0 0.0 0.00 0.01 0.00 89 1001.3
20260830082637 79 0 0.0 0.0 0.00 0.01 0.00 89 1001.4
20260830081650 79 0 0.0 0.0 0.00 0.01 0.00 89 1001.4
20260830081408 79 0 0.0 0.0 0.00 0.01 0.00 89 1001.4
20260830080648 79 0 0.0 0.0 0.00 0.01 0.00 88 1001.5
20260830080147 79 0 0.0 0.0 0.00 0.01 0.00 88 1001.5
20260830075647 80 0 0.0 0.0 0.00 0.01 0.00 88 1001.5
20260830075147 80 0 0.0 0.0 0.00 0.01 0.00 88 1001.5
20260830074644 80 0 0.0 0.0 0.00 0.01 0.00 88 1001.5
20260830074407 80 0 0.0 0.0 0.00 0.01 0.00 88 1001.5
20260830073641 80 0 0.0 0.0 0.00 0.01 0.00 87 1001.6
20260830073143 80 0 0.0 0.0 0.00 0.01 0.00 87 1001.6
20260830072639 80 0 0.0 1.0 0.00 0.01 0.00 87 1001.7
20260830072359 80 0 0.0 1.0 0.00 0.01 0.00 87 1001.6
20260830071633 81 0 0.0 1.0 0.00 0.01 0.00 87 1001.6
20260830071133 81 0 0.0 1.0 0.00 0.01 0.00 87 1001.6
20260830070854 81 0 0.0 1.0 0.00 0.01 0.00 86 1001.6
20260830070129 81 0 0.0 1.0 0.00 0.01 0.00 86 1001.6
20260830065852 81 0 0.0 2.0 0.00 0.01 0.00 86 1001.6
20260830065130 81 0 0.0 2.0 0.00 0.01 0.00 86 1001.6
20260830064625 81 0 0.0 2.0 0.00 0.01 0.00 86 1001.6
20260830064123 81 0 0.0 2.0 0.00 0.01 0.00 85 1001.6
20260830063623 82 0 0.0 2.0 0.00 0.01 0.00 85 1001.6
20260830063344 82 0 0.0 2.0 0.00 0.01 0.00 85 1001.5
20260830062621 82 0 0.0 2.0 0.00 0.01 0.00 85 1001.6
20260830062343 82 0 0.0 2.0 0.00 0.01 0.00 84 1001.6
20260830061623 82 0 0.0 0.0 0.00 0.01 0.00 84 1001.6
20260830061122 82 0 0.0 0.0 0.00 0.01 0.00 84 1001.6
20260830060618 82 0 0.0 1.0 0.00 0.01 0.00 84 1001.6
20260830060118 83 0 0.0 1.0 0.00 0.01 0.00 83 1001.5
20260830055615 83 0 0.0 1.0 0.00 0.01 0.00 83 1001.6
20260830055112 83 0 0.0 1.0 0.00 0.01 0.00 83 1001.6
20260830054611 83 0 0.0 2.0 0.00 0.01 0.00 83 1001.6
20260830054111 83 0 0.0 3.0 0.00 0.01 0.00 82 1001.6
20260830053612 83 0 0.0 3.0 0.00 0.01 0.00 82 1001.5
20260830053111 83 0 0.0 2.0 0.00 0.01 0.00 82 1001.5
20260830052612 83 0 0.0 2.0 0.00 0.01 0.00 82 1001.6
20260830052338 84 0 0.0 1.0 0.00 0.01 0.00 81 1001.6
20260830051611 84 0 0.0 1.0 0.00 0.01 0.00 81 1001.6
20260830051111 84 0 0.0 3.0 0.00 0.01 0.00 81 1001.6
20260830050607 84 0 1.0 3.0 0.00 0.01 0.00 81 1001.6
20260830050326 84 0 1.0 4.0 0.00 0.01 0.00 80 1001.5
20260830050050 84 0 1.0 4.0 0.00 0.01 0.01 80 1001.6
20260830045327 84 0 1.0 3.0 0.00 0.01 0.01 80 1001.6
20260830044821 85 0 1.0 5.0 0.00 0.01 0.01 80 1001.5
20260830044101 85 0 1.0 5.0 0.00 0.01 0.01 79 1001.6
20260830043600 85 0 0.0 2.0 0.00 0.01 0.01 79 1001.6
20260830043322 85 0 0.0 2.0 0.00 0.01 0.01 78 1001.5
20260830042600 85 0 1.0 3.0 0.00 0.01 0.01 78 1001.5
20260830042100 85 0 1.0 3.0 0.00 0.01 0.01 78 1001.6
20260830041601 85 0 1.0 4.0 0.00 0.01 0.01 78 1001.5
20260830041100 85 0 1.0 4.0 0.00 0.01 0.01 78 1001.5
20260830040558 86 0 1.0 3.0 0.00 0.01 0.01 77 1001.4
20260830040056 86 0 1.0 4.0 0.00 0.01 0.01 77 1001.4
20260830035555 86 0 1.0 4.0 0.00 0.01 0.01 77 1001.4
20260830035313 86 0 1.0 3.0 0.00 0.01 0.01 77 1001.4
20260830034557 86 0 1.0 5.0 0.00 0.01 0.01 76 1001.4
20260830034056 86 0 1.0 5.0 0.00 0.01 0.01 76 1001.3
20260830033827 87 0 1.0 4.0 0.00 0.01 0.01 76 1001.3
20260830033323 87 0 2.0 4.0 0.00 0.01 0.01 76 1001.3
20260830032557 87 0 2.0 4.0 0.00 0.01 0.01 76 1001.4
20260830032052 87 0 2.0 5.0 0.00 0.01 0.01 75 1001.3
20260830031552 87 0 1.0 5.0 0.00 0.01 0.01 75 1001.3
20260830031052 87 0 1.0 4.0 0.00 0.01 0.01 75 1001.2
20260830030808 87 0 1.0 5.0 0.00 0.01 0.01 74 1001.2
20260830030051 87 0 2.0 5.0 0.00 0.01 0.01 74 1001.1
20260830025817 87 0 2.0 5.0 0.00 0.01 0.01 74 1001.1
20260830025540 87 0 2.0 6.0 0.00 0.01 0.01 74 1001.0
20260830024552 87 0 2.0 6.0 0.00 0.01 0.01 73 1001.0
20260830024054 87 0 2.0 4.0 0.00 0.01 0.01 73 1000.9
20260830023548 87 0 2.0 4.0 0.00 0.01 0.01 72 1000.8
20260830023048 87 0 1.0 4.0 0.00 0.01 0.01 72 1000.6
20260830022547 87 0 1.0 4.0 0.00 0.01 0.01 71 1000.5
20260830022048 87 0 1.0 3.0 0.00 0.01 0.01 71 1000.4
20260830021548 87 0 1.0 3.0 0.00 0.01 0.01 70 1000.3
20260830021048 87 0 1.0 3.0 0.00 0.01 0.01 69 1000.3
20260830020548 87 0 0.0 1.0 0.00 0.01 0.01 68 1000.2
20260830020048 88 0 0.0 1.0 0.00 0.01 0.01 67 1000.1